Waarnemingen

Advertentie
Mijn weer
Cap Cepet, Frankrijk (7661): temperatuur & dauwpunt: 15.03.2019 13:00:00 - 21.03.2019 13:00:00 (CET)Cap Cepet, Frankrijk (7661): windsnelheid & windstoten: 15.03.2019 13:00:00 - 21.03.2019 13:00:00 (CET)Cap Cepet, Frankrijk (7661): windrichting: 15.03.2019 13:00:00 - 21.03.2019 13:00:00 (CET)Cap Cepet, Frankrijk (7661): luchtdruk: 15.03.2019 13:00:00 - 21.03.2019 13:00:00 (CET)Cap Cepet, Frankrijk (7661): zicht: 15.03.2019 13:00:00 - 21.03.2019 13:00:00 (CET)Cap Cepet, Frankrijk (7661): neerslag: 15.03.2019 13:00:00 - 21.03.2019 13:00:00 (CET)
Datum & Tijd tt [°C] td [°C] ff [km/u] ff [kn] fx [km/u] fx [kn] dd ppp [hPa] vv [km] rr [mm]
21.03.2019 13:00:00 16,6 3,6 17 9 25 13 WZW 1028,3 - 0,0
21.03.2019 12:00:00 15,5 3,6 13 7 17 9 ZW 1028,5 - 0,0
21.03.2019 11:00:00 14,4 1,6 3 2 10 6 NW 1028,9 - 0,0
21.03.2019 10:00:00 12,7 1,4 7 4 18 10 O 1029,1 - 0,0
21.03.2019 09:00:00 11,3 1,5 15 8 23 12 O 1028,8 - 0,0
21.03.2019 08:00:00 7,9 2,6 5 3 18 10 ONO 1028,4 - 0,0
21.03.2019 07:00:00 7,8 1,6 15 8 18 10 N 1027,9 - 0,0
21.03.2019 06:00:00 7,4 0,6 15 8 20 11 N 1027,7 - 0,0
21.03.2019 05:00:00 8,5 0,5 13 7 22 12 O 1027,9 - 0,0
21.03.2019 04:00:00 6,4 1,5 19 11 29 16 O 1028,1 15 0,0
21.03.2019 03:00:00 7,4 1,7 14 8 26 14 O 1028,5 - 0,0
21.03.2019 02:00:00 7,8 1,4 10 5 23 12 O 1028,6 - 0,0
21.03.2019 01:00:00 10,4 0,1 7 4 11 6 ONO 1028,7 - 0,0
21.03.2019 00:00:00 10,0 2,1 10 5 13 7 ONO 1028,9 - 0,0
20.03.2019 23:00:00 9,2 4,0 11 6 15 8 O 1029,2 - 0,0
20.03.2019 22:00:00 9,2 3,4 7 4 12 6 N 1029,3 - 0,0
20.03.2019 21:00:00 9,7 3,9 8 4 12 7 NNW 1029,0 - 0,0
20.03.2019 20:00:00 10,5 4,0 5 3 8 5 NNW 1028,9 - 0,0
20.03.2019 19:00:00 11,6 2,6 8 4 13 7 ZZO 1028,6 - 0,0
20.03.2019 18:00:00 13,3 3,4 4 2 12 7 ZW 1028,1 - 0,0
20.03.2019 17:00:00 13,2 3,0 9 5 15 8 WZW 1027,6 - 0,0
20.03.2019 16:00:00 13,3 3,6 12 6 23 13 WZW 1027,5 30 0,0
20.03.2019 15:00:00 15,5 3,9 15 8 24 13 ZW 1027,4 - 0,0
20.03.2019 14:00:00 15,4 3,8 16 9 27 15 ZW 1027,4 - 0,0
20.03.2019 13:00:00 15,1 3,6 15 8 23 13 ZW 1027,8 30 0,0
20.03.2019 12:00:00 15,5 0,1 10 5 18 10 ZW 1028,0 - 0,0
20.03.2019 11:00:00 14,4 -0,9 4 2 10 5 O 1028,0 - 0,0
20.03.2019 10:00:00 13,6 3,1 2 1 5 3 N 1027,7 - 0,0
20.03.2019 09:00:00 12,7 4,4 0 0 10 5 N 1027,3 - 0,0
20.03.2019 08:00:00 9,9 0,5 9 5 11 6 O 1026,8 - 0,0
20.03.2019 07:00:00 7,8 1,8 4 2 14 8 ONO 1026,3 - 0,0
20.03.2019 06:00:00 6,7 2,8 9 5 16 8 N 1025,9 - 0,0
20.03.2019 05:00:00 7,0 1,1 11 6 17 9 O 1025,6 - 0,0
20.03.2019 04:00:00 6,8 2,7 12 6 24 13 O 1025,6 15 0,0
20.03.2019 03:00:00 7,1 2,4 18 10 25 13 O 1025,7 - 0,0
20.03.2019 02:00:00 7,7 3,4 6 4 15 8 ONO 1025,8 - 0,0
20.03.2019 01:00:00 8,7 3,7 8 4 10 5 N 1025,5 - 0,0
20.03.2019 00:00:00 9,3 3,3 6 4 18 10 O 1025,7 - 0,0
19.03.2019 23:00:00 9,8 2,6 8 4 12 6 O 1025,5 - 0,0
19.03.2019 22:00:00 10,2 3,9 5 3 15 8 O 1025,0 - 0,0
19.03.2019 21:00:00 10,0 2,3 13 7 17 9 ZZW 1024,6 - 0,0
19.03.2019 20:00:00 10,1 2,4 11 6 16 8 ZW 1024,3 - 0,0
19.03.2019 19:00:00 10,2 2,8 10 5 15 8 ZZW 1023,9 25 0,0
19.03.2019 18:00:00 11,7 2,7 8 5 18 10 ZW 1023,1 - 0,0
19.03.2019 17:00:00 12,1 2,8 12 6 21 11 ZW 1022,5 - 0,0
19.03.2019 16:00:00 12,3 3,0 15 8 25 14 ZZW 1022,1 - 0,0
19.03.2019 15:00:00 12,4 2,3 15 8 37 20 ZO 1021,7 - 0,0
19.03.2019 14:00:00 13,4 2,9 18 10 41 22 OZO 1021,5 - 0,0
19.03.2019 13:00:00 15,6 2,0 24 13 44 24 OZO 1021,4 30 0,0
19.03.2019 12:00:00 14,8 1,3 27 14 43 23 OZO 1021,2 - 0,0
19.03.2019 11:00:00 15,0 1,8 23 12 51 28 O 1020,9 - 0,0
19.03.2019 10:00:00 13,8 1,4 30 16 51 28 O 1020,1 30 0,0
19.03.2019 09:00:00 10,5 1,3 18 10 26 14 O 1019,9 - 0,0
19.03.2019 08:00:00 8,1 1,0 15 8 29 15 O 1019,8 - 0,0
19.03.2019 07:00:00 6,2 -0,5 18 10 26 14 O 1019,1 20 0,0
19.03.2019 06:00:00 7,7 -0,3 9 5 14 8 O 1018,6 - 0,0
19.03.2019 05:00:00 8,0 -0,5 8 5 11 6 O 1018,3 - 0,0
19.03.2019 04:00:00 8,3 -3,3 5 3 14 8 NO 1017,8 - 0,0
19.03.2019 03:00:00 8,3 -4,9 0 0 11 6 N 1017,9 - 0,0
19.03.2019 02:00:00 8,5 -4,7 12 7 29 15 NNW 1018,0 - 0,0
19.03.2019 01:00:00 9,0 -4,6 22 12 28 15 NW 1018,0 - 0,0
19.03.2019 00:00:00 9,0 -4,9 20 11 32 17 NNW 1017,9 - 0,0
18.03.2019 23:00:00 9,4 -4,9 18 10 35 19 NNW 1017,9 - 0,0
18.03.2019 22:00:00 9,9 -5,3 17 9 37 20 NNO 1017,8 - 0,0
18.03.2019 21:00:00 10,2 -4,2 25 14 48 26 NW 1017,5 - 0,0
18.03.2019 20:00:00 10,8 -3,3 35 19 57 31 NNW 1017,1 - 0,0
18.03.2019 19:00:00 11,8 -3,2 37 20 60 32 NNW 1016,7 20 0,0
18.03.2019 18:00:00 13,7 -2,7 41 22 69 38 NNW 1015,8 - 0,0
18.03.2019 17:00:00 15,5 -4,0 37 20 67 36 NNW 1015,1 - 0,0
18.03.2019 16:00:00 15,7 -3,3 41 22 58 31 NNW 1014,8 - 0,0
18.03.2019 15:00:00 16,0 -3,0 36 19 53 29 NNW 1014,9 - 0,0
18.03.2019 14:00:00 15,2 -2,7 44 24 61 33 NNW 1015,2 - 0,0
18.03.2019 13:00:00 15,6 -1,1 37 20 55 30 NNW 1015,8 20 0,0
18.03.2019 12:00:00 13,1 -2,8 39 21 59 32 NNW 1016,2 - 0,0
18.03.2019 11:00:00 12,8 -2,3 47 25 74 40 NNW 1015,7 - 0,0
18.03.2019 10:00:00 10,5 -1,9 59 32 91 49 NW 1015,2 - 0,0
18.03.2019 09:00:00 9,0 -1,7 55 30 71 38 NW 1014,9 - 0,0
18.03.2019 08:00:00 7,8 -1,5 49 26 71 39 NW 1016,0 - 0,0
18.03.2019 07:00:00 7,8 -2,3 50 27 72 39 NW 1015,8 - 0,0
18.03.2019 06:00:00 7,9 -2,5 51 28 73 39 NW 1015,5 - 0,0
18.03.2019 05:00:00 8,5 -2,8 53 28 74 40 NNW 1015,0 - 0,0
18.03.2019 04:00:00 8,8 -3,8 50 27 70 38 NW 1015,2 - 0,0
18.03.2019 03:00:00 8,9 -2,4 46 25 66 36 NW 1015,2 - 0,0
18.03.2019 02:00:00 9,2 -1,0 43 23 70 38 NNW 1015,5 - 0,0
18.03.2019 01:00:00 10,2 -0,1 48 26 69 38 NW 1015,3 - 0,0
18.03.2019 00:00:00 11,1 -1,3 55 30 76 41 NNW 1014,4 - 0,0
17.03.2019 23:00:00 12,2 0,3 47 25 73 40 NNW 1014,2 - 0,0
17.03.2019 22:00:00 13,4 2,9 46 25 67 36 NNW 1014,0 - 0,0
17.03.2019 21:00:00 13,8 6,4 35 19 51 28 NNW 1013,5 - 0,0
17.03.2019 20:00:00 13,8 8,2 38 20 62 33 NW 1013,1 - 0,0
17.03.2019 19:00:00 13,2 9,4 41 22 54 29 NW 1012,9 - 0,0
17.03.2019 18:00:00 13,9 9,7 19 10 33 18 NW 1013,1 - 0,0
17.03.2019 17:00:00 15,5 10,7 13 7 27 14 WNW 1013,3 - 0,0
17.03.2019 16:00:00 14,2 10,4 6 4 28 15 ZW 1013,7 - 0,0
17.03.2019 15:00:00 16,0 11,0 19 11 31 17 OZO 1013,4 - 0,0
17.03.2019 14:00:00 14,0 10,6 16 9 30 16 O 1014,2 - 0,0
17.03.2019 13:00:00 13,9 10,1 17 9 39 21 O 1015,1 - 0,0
17.03.2019 12:00:00 14,4 10,4 20 11 36 19 O 1015,4 - 0,0
17.03.2019 11:00:00 14,1 10,1 19 10 39 21 O 1015,7 - 0,0
17.03.2019 10:00:00 13,4 10,0 22 12 32 18 O 1015,9 - 0,0
17.03.2019 09:00:00 11,3 9,9 16 9 27 15 O 1016,1 - 0,0
17.03.2019 08:00:00 10,4 9,3 17 9 34 18 O 1015,9 - 0,0
17.03.2019 07:00:00 9,9 9,3 20 11 29 16 O 1015,6 15 0,0
17.03.2019 06:00:00 9,1 8,3 21 11 29 16 O 1015,6 - 0,0
17.03.2019 05:00:00 9,5 8,9 18 10 34 19 O 1016,1 - 0,0
17.03.2019 04:00:00 8,9 8,4 23 12 42 23 O 1016,2 18 0,2
17.03.2019 03:00:00 8,7 7,8 31 17 44 24 O 1016,4 - 0,0
17.03.2019 02:00:00 8,9 7,8 28 15 40 22 O 1016,9 - 0,0
17.03.2019 01:00:00 9,7 8,1 22 12 34 18 O 1017,6 - 0,0
17.03.2019 00:00:00 9,8 8,4 21 11 25 14 O 1017,7 - 0,0
16.03.2019 23:00:00 10,5 8,8 9 5 9 5 NNO 1018,0 - 0,0
16.03.2019 22:00:00 11,2 8,8 6 3 7 4 NNW 1018,2 - 0,0
16.03.2019 21:00:00 11,3 8,5 5 3 16 9 O 1018,2 - 0,0
16.03.2019 20:00:00 11,8 9,2 11 6 30 16 O 1017,5 - 0,0
16.03.2019 19:00:00 12,9 5,6 29 16 63 34 NW 1016,9 30 0,0
16.03.2019 18:00:00 14,0 6,8 44 24 58 31 NW 1016,0 - 0,0
16.03.2019 17:00:00 15,1 8,3 38 20 61 33 NW 1016,3 - 0,0
16.03.2019 16:00:00 15,6 8,6 39 21 59 32 NW 1016,2 30 0,0
16.03.2019 15:00:00 16,6 8,3 42 23 63 34 NW 1016,0 - 0,0
16.03.2019 14:00:00 16,9 8,3 33 18 56 31 NW 1016,3 - 0,0
16.03.2019 13:00:00 17,5 7,5 38 20 60 33 NW 1016,7 30 0,0
16.03.2019 12:00:00 17,1 6,3 36 19 55 30 NW 1017,1 - 0,0
16.03.2019 11:00:00 16,2 5,8 29 16 56 30 NW 1017,2 - 0,0
16.03.2019 10:00:00 14,4 5,2 43 23 56 30 NW 1016,9 30 0,0
16.03.2019 09:00:00 13,3 4,7 29 16 44 24 NW 1016,9 - 0,0
16.03.2019 08:00:00 12,4 4,1 17 9 36 20 NW 1016,8 - 0,0
16.03.2019 07:00:00 11,8 4,3 23 13 54 29 NW 1016,5 20 0,0
16.03.2019 06:00:00 12,1 5,0 31 17 55 30 NW 1016,3 - 0,0
16.03.2019 05:00:00 12,7 4,4 35 19 51 28 NW 1016,2 - 0,0
16.03.2019 04:00:00 13,3 5,0 36 19 50 27 NW 1016,5 - 0,0
16.03.2019 03:00:00 13,7 4,3 41 22 56 30 NW 1016,6 - 0,0
16.03.2019 02:00:00 14,5 3,9 29 16 49 26 NW 1017,0 - 0,0
16.03.2019 01:00:00 14,8 3,9 16 8 64 35 W 1017,3 - 0,0
16.03.2019 00:00:00 15,3 4,0 33 18 73 39 NW 1017,0 - 0,0
15.03.2019 23:00:00 15,9 4,3 47 25 95 51 NW 1016,9 - 0,0
15.03.2019 22:00:00 16,3 4,0 70 38 86 47 NNW 1016,1 - 0,0
15.03.2019 21:00:00 16,7 4,0 66 36 86 46 NNW 1016,2 - 0,0
15.03.2019 20:00:00 17,2 4,5 61 33 77 42 NNW 1016,5 - 0,0
15.03.2019 19:00:00 18,0 3,8 45 24 74 40 NW 1017,3 25 0,0
15.03.2019 18:00:00 19,1 4,1 50 27 79 43 NNW 1016,8 - 0,0
15.03.2019 17:00:00 20,2 4,2 46 25 84 45 NW 1016,2 - 0,0
15.03.2019 16:00:00 20,3 3,9 58 32 94 51 NNW 1015,7 - 0,0
15.03.2019 15:00:00 20,5 4,1 61 33 99 54 NNW 1015,6 - 0,0
15.03.2019 14:00:00 20,4 5,2 55 30 91 49 NNW 1015,6 - 0,0
15.03.2019 13:00:00 18,9 6,4 57 31 90 49 NNW 1015,9 18 0,0

tt = temperatuur
td = dauwpunt
ff = windsnelheid
fx = windstoten
dd = windrichting
ppp = luchtdruk
vv = zicht
rr = neerslag

Weerstations in de omgeving